Effective Sunday, March 17, 2024, the National Weather Service National Data Buoy Center will discontinue its Dial-A-Buoy Interactive Voice Response system. For more information, see Service Change Notice 24-06 (PDF).

Station DPXC1 - 9415141 - Davis Point, San Pablo Bay, CA Image indicating link to RSS feed of recent meteorological observations for station DPXC1


Conditions at DPXC1 as of
(5:54 pm PST on 02/29/2024)
0154 GMT on 03/01/2024:
     

Click on the graph icon in the table below to see a time series plot of the last five days of that observation.

5-day plot - Wind Direction Wind Direction (WDIR): W ( 280 deg true )
5-day plot - Wind Speed Wind Speed (WSPD): 11.1 kts
5-day plot - Wind Gust Wind Gust (GST): 14.0 kts
5-day plot - Atmospheric Pressure Atmospheric Pressure (PRES):29.95 in
5-day plot - Air Temperature Air Temperature (ATMP): 53.1 °F
5-day plot - Wind Chill Wind Chill (CHILL): 49.1 °F
5-day plot - Wind Speed at 10 Meters Wind Speed at 10 meters (WSPD10M): 11.7 kts
5-day plot - Wind Speed at 20 Meters Wind Speed at 20 meters (WSPD20M): 13.6 kts
5-day plot -  Wind Speed, Wind Gust and Atmospheric Pressure Combined plot of Wind Speed, Gust, and Air Pressure
NOS Water Level Observation Network Water Level
Previous observations
TIME
(PST)
5-day plot - Wind Direction
WDIR
 
5-day plot - Wind Speed
WSPD
kts
5-day plot - Wind Gust
GST
kts
5-day plot - Wave Height
WVHT
ft
5-day plot - Dominant Wave Period
DPD
sec
5-day plot - Average Wave Period
APD
sec
5-day plot - Mean Wave Direction
MWD
 
5-day plot - Atmospheric Pressure
PRES
in
5-day plot - Pressure Tendency
PTDY
in
5-day plot - Air Temperature
ATMP
°F
5-day plot - Water Temperature
WTMP
°F
5-day plot - Dew Point
DEWP
°F
5-day plot - Salinity
SAL
psu
5-day plot - Visibility
VIS
nmi
5-day plot - Tide (above MLLW)
TIDE
ft
2024-02-29 05:48 pm W 9.9 14.0----29.95- 52.9-----
2024-02-29 05:42 pm W 8.9 14.0----29.95- 52.9-----
2024-02-29 05:36 pm W 9.9 13.0----29.95- 52.9-----
2024-02-29 05:30 pm W 11.1 14.0----29.95- 52.7-----
2024-02-29 05:24 pm W 9.9 12.0----29.95- 52.5-----
2024-02-29 05:18 pm W 12.0 17.1----29.95- 52.5-----
2024-02-29 05:12 pm W 11.1 17.1----29.95- 52.5-----
2024-02-29 05:06 pm W 8.9 15.9----29.96- 52.5-----
2024-02-29 05:00 pmWNW 13.0 21.0----29.96+0.02 52.5-----
2024-02-29 04:54 pmWNW 15.9 21.0----29.96- 52.3-----
2024-02-29 04:48 pmWNW 12.0 19.0----29.96- 52.9-----
2024-02-29 04:42 pmWNW 12.0 18.1----29.96- 53.1-----
2024-02-29 04:36 pmWNW 14.0 18.1----29.96- 53.1-----
2024-02-29 04:30 pmWNW 13.0 17.1----29.96- 52.9-----
2024-02-29 04:24 pmWNW 13.0 17.1----29.95- 52.7-----
2024-02-29 04:18 pmWNW 14.0 18.1----29.95- 52.5-----
2024-02-29 04:12 pm W 9.9 15.0----29.95- 52.7-----
2024-02-29 04:06 pmWNW 13.0 19.0----29.95- 52.5-----
2024-02-29 04:00 pmWSW 17.1 27.0----29.94-0.03 54.1-----
2024-02-29 03:54 pm SW 21.0 27.0----29.93- 55.8-----
2024-02-29 03:48 pm SW 19.0 22.9----29.92- 56.3-----
2024-02-29 03:42 pm SW 22.0 26.0----29.91- 56.7-----
2024-02-29 03:36 pm SW 20.0 27.0----29.91- 57.2-----
2024-02-29 02:48 pm SW 20.0 28.9----29.92- 57.6-----
2024-02-29 02:42 pm SW 22.9 28.0----29.92- 57.4-----
2024-02-29 02:36 pm SW 22.9 29.9----29.92- 57.9-----
2024-02-29 02:30 pm SW 19.0 24.1----29.93- 58.1-----
2024-02-29 02:24 pm SW 21.0 27.0----29.92- 58.1-----
2024-02-29 02:18 pm SW 24.1 32.1----29.93- 57.7-----
2024-02-29 02:12 pm SW 20.0 33.0----29.93- 57.9-----
2024-02-29 02:06 pm SW 25.1 32.1----29.93- 57.7-----
2024-02-29 02:00 pm SW 21.0 28.0----29.93-0.04 57.7-----
2024-02-29 01:54 pm SW 25.1 29.9----29.93- 57.6-----
2024-02-29 01:48 pm SW 21.0 29.9----29.94- 57.7-----
2024-02-29 01:42 pm SW 20.0 27.0----29.94- 57.7-----
2024-02-29 01:36 pm SW 19.0 25.1----29.95- 57.6-----
2024-02-29 01:30 pm SW 15.9 26.0----29.95- 57.6-----
2024-02-29 01:24 pm SW 19.0 24.1----29.95- 57.0-----
2024-02-29 01:18 pm SW 15.9 22.9----29.96- 56.7-----
2024-02-29 01:12 pm SW 18.1 28.9----29.95- 56.5-----
2024-02-29 01:06 pmSSW 20.0 28.0----29.96- 57.0-----
2024-02-29 01:00 pm SW 17.1 21.0----29.97-0.02 56.3-----
2024-02-29 12:54 pm SW 17.1 25.1----29.97- 55.6-----
2024-02-29 12:48 pm SW 15.9 26.0----29.96- 56.7-----
2024-02-29 12:42 pm SW 17.1 22.9----29.97- 55.9-----
2024-02-29 12:36 pmSSW 18.1 25.1----29.97- 55.8-----
2024-02-29 12:30 pmSSW 18.1 24.1----29.97- 55.9-----
2024-02-29 12:24 pmSSW 18.1 27.0----29.97- 56.3-----
2024-02-29 12:18 pmSSW 18.1 22.0----29.97- 57.4-----
2024-02-29 12:12 pmSSW 18.1 24.1----29.97- 57.2-----
2024-02-29 12:06 pm SW 20.0 25.1----29.97- 57.6-----
2024-02-29 12:00 pmSSW 15.0 20.0----29.97+0.00 57.2-----
2024-02-29 11:54 amSSW 13.0 21.0----29.98- 56.7-----
2024-02-29 11:48 amSSW 14.0 22.9----29.98- 56.3-----
2024-02-29 11:42 amSSW 15.9 22.9----29.98- 56.1-----
2024-02-29 11:36 amSSW 17.1 22.0----29.98- 55.6-----
2024-02-29 11:30 amSSW 17.1 21.0----29.98- 56.1-----
2024-02-29 11:24 amSSW 14.0 20.0----29.98- 56.5-----
2024-02-29 11:18 amSSW 15.0 19.0----29.98- 56.5-----
2024-02-29 11:12 amSSW 14.0 19.0----29.98- 55.9-----
2024-02-29 11:06 amSSW 14.0 22.0----29.98- 55.6-----
2024-02-29 11:00 amSSW 17.1 25.1----29.98+0.00 56.5-----
2024-02-29 10:54 amSSW 15.0 22.9----29.98- 56.3-----
2024-02-29 10:48 amSSW 18.1 24.1----29.98- 56.1-----
2024-02-29 10:42 amSSW 14.0 21.0----29.98- 55.9-----
2024-02-29 10:36 amSSW 15.0 20.0----29.98- 55.4-----
2024-02-29 10:30 amSSW 14.0 21.0----29.98- 54.5-----
2024-02-29 10:24 amSSW 14.0 18.1----29.99- 54.1-----
2024-02-29 10:18 amSSW 14.0 18.1----29.99- 54.0-----
2024-02-29 10:12 amSSW 14.0 18.1----29.99- 53.8-----
2024-02-29 10:06 amSSW 13.0 15.9----29.99- 53.8-----
2024-02-29 10:00 amSSW 12.0 15.0----29.99+0.01 53.8-----
2024-02-29 09:54 amSSW 11.1 15.9----29.99- 54.0-----
2024-02-29 09:48 amSSW 13.0 18.1----29.99- 53.8-----
2024-02-29 09:42 amSSW 14.0 21.0----29.98- 54.0-----
2024-02-29 09:36 amSSW 14.0 21.0----29.98- 54.1-----
2024-02-29 09:30 amSSW 15.0 22.0----29.98- 54.1-----
2024-02-29 09:24 amSSW 12.0 17.1----29.98- 54.0-----
2024-02-29 09:18 amSSW 12.0 17.1----29.98- 54.0-----
2024-02-29 09:12 amSSW 15.0 19.0----29.98- 54.0-----
2024-02-29 09:06 amSSW 13.0 18.1----29.98- 54.0-----
2024-02-29 09:00 amSSW 13.0 18.1----29.98-0.01 54.1-----
2024-02-29 08:54 amSSW 13.0 15.9----29.98- 54.1-----
2024-02-29 08:48 amSSW 15.0 19.0----29.98- 54.1-----
2024-02-29 08:42 amSSW 14.0 19.0----29.98- 54.0-----
2024-02-29 08:36 amSSW 15.9 20.0----29.97- 53.8-----
2024-02-29 08:30 amSSW 15.0 19.0----29.97- 53.6-----
2024-02-29 08:24 amSSW 13.0 19.0----29.98- 53.6-----
2024-02-29 08:18 amSSW 12.0 17.1----29.98- 53.6-----
2024-02-29 08:12 amSSW 15.0 18.1----29.97- 53.6-----
2024-02-29 08:06 amSSW 12.0 19.0----29.98- 53.4-----
2024-02-29 08:00 amSSW 15.0 19.0----29.97+0.00 53.2-----
2024-02-29 07:54 amSSW 14.0 21.0----29.97- 53.4-----
2024-02-29 07:48 amSSW 13.0 20.0----29.98- 53.8-----
2024-02-29 07:42 amSSW 15.0 22.0----29.97- 53.8-----
2024-02-29 07:36 amSSW 14.0 19.0----29.97- 53.6-----
2024-02-29 07:30 amSSW 15.0 19.0----29.97- 53.6-----
2024-02-29 07:24 amSSW 13.0 17.1----29.97- 53.2-----
2024-02-29 07:18 amSSW 12.0 15.0----29.98- 53.2-----
2024-02-29 07:12 amSSW 11.1 15.0----29.98- 53.2-----
2024-02-29 07:06 amSSW 11.1 15.0----29.98- 53.2-----
2024-02-29 07:00 amSSW 12.0 17.1----29.98+0.00 53.2-----
2024-02-29 06:54 amSSW 12.0 15.0----29.98- 53.1-----
2024-02-29 06:48 amSSW 9.9 12.0----29.98- 52.9-----
2024-02-29 06:42 amSSW 8.9 12.0----29.99- 52.5-----
2024-02-29 06:36 amSSW 8.0 11.1----29.99- 52.2-----
2024-02-29 06:30 amSSW 8.9 13.0----29.99- 52.0-----
2024-02-29 06:24 amSSW 9.9 13.0----29.99- 51.8-----
2024-02-29 06:18 amSSW 11.1 18.1----29.99- 52.0-----
2024-02-29 06:12 amSSW 11.1 14.0----29.99- 52.2-----
2024-02-29 06:06 am SW 11.1 14.0----29.99- 52.2-----
2024-02-29 06:00 am SW 8.9 14.0----29.99+0.00 52.3-----
2024-02-29 05:54 am SW 12.0 15.0----29.98- 52.3-----
2024-02-29 05:48 amSSW 11.1 15.0----29.98- 52.5-----
2024-02-29 05:42 amSSW 11.1 14.0----29.98- 53.1-----
2024-02-29 05:36 amSSW 11.1 15.0----29.98- 53.2-----
2024-02-29 05:30 amSSW 13.0 15.0----29.98- 53.4-----
2024-02-29 05:24 amSSW 8.9 13.0----29.98- 53.4-----
2024-02-29 05:18 amSSW 8.9 13.0----29.98- 53.2-----
2024-02-29 05:12 amSSW 9.9 13.0----29.97- 53.2-----
2024-02-29 05:06 amSSW 8.0 9.9----29.98- 53.1-----
2024-02-29 05:00 amSSW 7.0 9.9----29.98-0.03 53.1-----
2024-02-29 04:54 amSSW 8.0 12.0----29.98- 52.9-----
2024-02-29 04:48 amSSW 8.0 9.9----29.98- 52.7-----
2024-02-29 04:42 amSSW 8.9 12.0----29.98- 52.7-----
2024-02-29 04:36 amSSW 9.9 14.0----29.98- 52.5-----
2024-02-29 04:30 am SW 14.0 17.1----29.98- 52.5-----
2024-02-29 04:24 amSSW 12.0 15.9----29.98- 52.5-----
2024-02-29 04:18 amSSW 8.9 12.0----29.98- 52.2-----
2024-02-29 04:12 amSSW 7.0 9.9----29.98- 52.0-----
2024-02-29 04:06 amSSW 6.0 9.9----29.98- 52.0-----
2024-02-29 04:00 amSSW 5.1 8.9----29.98-0.03 52.2-----
2024-02-29 03:54 amSSW 8.0 11.1----29.98- 52.2-----
2024-02-29 03:48 amSSW 8.9 11.1----29.99- 52.0-----
2024-02-29 03:42 amSSW 9.9 13.0----29.99- 52.2-----
2024-02-29 03:36 amSSW 8.0 9.9----29.99- 52.2-----
2024-02-29 03:30 amSSW 7.0 9.9----29.99- 52.2-----
2024-02-29 03:24 amSSW 8.0 11.1----29.99- 52.0-----
2024-02-29 03:18 amSSW 8.9 11.1----29.99- 52.3-----
2024-02-29 03:12 am SW 9.9 14.0----29.99- 52.2-----
2024-02-29 03:06 am SW 11.1 13.0----30.00- 52.2-----
2024-02-29 03:00 am SW 11.1 14.0----30.00-0.02------
2024-02-29 02:54 am SW 13.0 15.0----30.00-------
2024-02-29 02:48 am SW 13.0 15.0----30.00- 52.5-----
2024-02-29 02:42 am SW 9.9 13.0----30.00- 52.7-----
2024-02-29 02:36 am SW 11.1 12.0----30.00- 52.2-----
2024-02-29 02:30 am SW 11.1 13.0----29.99- 52.3-----
2024-02-29 02:24 am SW 11.1 13.0----30.00- 52.7-----
2024-02-29 02:18 am SW 8.0 11.1----30.00- 52.3-----
2024-02-29 02:12 am SW 8.0 11.1----30.01- 52.3-----
2024-02-29 02:06 am SW 7.0 9.9----30.01- 51.8-----
2024-02-29 02:00 am SW 9.9 12.0----30.01-0.01 51.6-----
2024-02-29 01:54 amWSW 9.9 12.0----30.01- 51.6-----
2024-02-29 01:48 amWSW 9.9 13.0----30.01- 51.3-----
2024-02-29 01:42 amWSW 9.9 12.0----30.01- 51.6-----
2024-02-29 01:36 am SW 8.9 11.1----30.01- 52.0-----
2024-02-29 01:30 am SW 8.0 11.1----30.01- 52.3-----
2024-02-29 01:24 amWSW 7.0 9.9----30.01- 52.3-----
2024-02-29 01:18 amWSW 7.0 11.1----30.01- 52.5-----
2024-02-29 01:12 am SW 7.0 9.9----30.01- 52.3-----
2024-02-29 01:06 am SW 7.0 9.9----30.02- 52.3-----
2024-02-29 01:00 amWSW 8.0 11.1----30.02+0.00 52.2-----
2024-02-29 12:54 am W 8.9 11.1----30.02- 52.0-----
2024-02-29 12:48 amWSW 8.0 12.0----30.02- 52.2-----
2024-02-29 12:42 amWSW 9.9 13.0----30.02- 52.2-----
2024-02-29 12:36 amWSW 9.9 14.0----30.02- 52.3-----
2024-02-29 12:30 amWSW 11.1 15.0----30.02- 52.3-----
2024-02-29 12:24 am SW 9.9 12.0----30.02- 52.2-----
2024-02-29 12:18 amWSW 8.9 12.0----30.02- 52.2-----
2024-02-29 12:12 amWSW 6.0 11.1----30.02- 52.2-----
2024-02-29 12:06 am SW 6.0 9.9----30.02- 52.3-----
2024-02-29 12:00 am SW 8.0 13.0----30.02+0.01 52.3-----
2024-02-28 11:54 pmWSW 5.1 8.0----30.02- 52.2-----
2024-02-28 11:48 pm W 5.1 8.0----30.02- 52.2-----
2024-02-28 11:42 pmWNW 6.0 8.0----30.02- 52.2-----
2024-02-28 11:36 pmWNW 6.0 8.9----30.02- 52.2-----
2024-02-28 11:30 pmWNW 7.0 9.9----30.02- 52.2-----
2024-02-28 11:24 pmWNW 7.0 12.0----30.02- 52.3-----
2024-02-28 11:18 pmWNW 8.9 12.0----30.02- 52.3-----
2024-02-28 11:12 pmWNW 8.9 11.1----30.03- 52.3-----
2024-02-28 11:00 pmWNW 7.0 9.9----30.02+0.02 52.3-----
2024-02-28 10:54 pm NW 8.0 11.1----30.02- 52.3-----
2024-02-28 10:48 pm NW 8.0 8.9----30.02- 52.3-----
2024-02-28 10:42 pmWNW 7.0 8.0----30.02- 52.5-----
2024-02-28 10:36 pmWNW 4.1 7.0----30.02- 52.5-----
2024-02-28 10:30 pmWNW 5.1 8.0----30.02- 52.9-----
2024-02-28 10:24 pmWNW 6.0 8.0----30.02- 52.9-----
2024-02-28 10:18 pmWNW 5.1 6.0----30.02- 52.7-----
2024-02-28 10:12 pmWNW 5.1 7.0----30.02- 52.9-----
2024-02-28 10:06 pm NW 7.0 8.9----30.02- 52.7-----
2024-02-28 10:00 pm NW 8.9 9.9----30.02+0.03 52.7-----
2024-02-28 09:54 pm NW 8.9 9.9----30.01- 52.7-----
2024-02-28 09:48 pm NW 8.0 9.9----30.01- 52.9-----
2024-02-28 09:42 pm NW 8.9 9.9----30.01- 52.9-----
2024-02-28 09:36 pm NW 8.0 9.9----30.01- 52.9-----
2024-02-28 09:30 pm NW 8.0 9.9----30.01- 53.1-----
2024-02-28 09:24 pm NW 8.0 9.9----30.01- 53.1-----
2024-02-28 09:18 pm NW 8.9 9.9----30.01- 53.2-----
2024-02-28 09:12 pm NW 8.9 9.9----30.01- 53.4-----
2024-02-28 09:06 pm NW 8.9 11.1----30.01- 53.4-----
2024-02-28 09:00 pm NW 8.9 11.1----30.01+0.03 53.6-----
2024-02-28 08:54 pm NW 8.9 9.9----30.01- 53.6-----
2024-02-28 08:48 pm NW 9.9 11.1----30.01- 53.8-----
2024-02-28 08:42 pm NW 9.9 11.1----30.00- 53.8-----
2024-02-28 08:36 pm NW 8.0 9.9----30.00- 54.0-----
2024-02-28 08:30 pm NW 8.0 9.9----30.00- 54.1-----
2024-02-28 08:24 pm NW 9.9 11.1----30.00- 54.1-----
2024-02-28 08:18 pm NW 8.9 11.1----30.00- 54.3-----
2024-02-28 08:12 pm NW 8.0 9.9----30.00- 54.3-----
2024-02-28 08:06 pm NW 8.9 11.1----30.00- 54.3-----
2024-02-28 08:00 pm NW 9.9 11.1----30.00+0.02 54.3-----
2024-02-28 07:54 pm NW 9.9 11.1----30.00- 54.5-----
2024-02-28 07:48 pm NW 8.0 8.9----30.00- 54.9-----
2024-02-28 07:42 pm NW 8.0 8.9----30.00- 55.4-----
2024-02-28 07:36 pmWNW 6.0 8.0----30.00- 55.6-----
2024-02-28 07:30 pmWNW 6.0 9.9----30.00- 55.8-----
2024-02-28 07:24 pmWNW 6.0 8.0----29.99- 56.1-----
2024-02-28 07:18 pmWNW 5.1 7.0----29.99- 56.8-----
2024-02-28 07:12 pmWSW 5.1 8.9----29.99- 56.8-----
2024-02-28 07:06 pmWSW 8.0 9.9----29.99- 57.0-----
2024-02-28 07:00 pmWSW 4.1 7.0----29.98+0.00 57.0-----
2024-02-28 06:54 pmWSW 5.1 7.0----29.98- 57.2-----
2024-02-28 06:48 pmWSW 6.0 8.9----29.98- 57.4-----
2024-02-28 06:42 pm SW 6.0 8.0----29.98- 57.6-----
2024-02-28 06:36 pm SW 6.0 8.0----29.98- 57.7-----
2024-02-28 06:30 pm SW 6.0 8.9----29.98- 57.9-----
2024-02-28 06:24 pmSSW 8.0 8.9----29.98- 58.1-----
2024-02-28 06:18 pmSSW 8.0 11.1----29.98- 58.6-----
2024-02-28 06:12 pmSSW 8.9 11.1----29.98- 58.8-----
2024-02-28 06:06 pmSSW 8.9 12.0----29.98- 59.0-----
2024-02-28 06:00 pmSSW 8.9 12.0----29.98-0.02 59.2-----
2024-02-28 05:54 pmSSW 8.0 11.1----29.98- 59.2-----